Home   Weather   Hollywood   Past weeks

Flag for USA Past Weather in Hollywood, California, USA — Yesterday and Last 2 Weeks

Now
52 °F

Sunny.


Feels Like: 47 °F
Forecast: 43 / 58 °F
Wind: 15 mph from North

Location: Bob Hope Airport

Current Time: Feb 23, 2017 at 10:57:06 am

Latest Report: Feb 23, 2017 at 9:53 am


Visibility: 10 mi

Pressure: 30.06 "Hg

Humidity: 34%

Dew Point: 24 °F

Location of HollywoodLocation

Past Weather in Hollywood — Graph

°F

Hollywood Temperature Yesterday

Maximum temperature yesterday: 61 °F (at 2:53 pm)
Minimum temperature yesterday: 47 °F (at 5:27 am)
Average temperature yesterday: 54 °F

High & Low Weather Summary for the Past Weeks

 TemperatureHumidityPressure
High78 °F (Feb 15, 12:53 pm)97% (Feb 10, 7:53 pm)30.36 "Hg (Feb 10, 7:53 pm)
Low46 °F (Feb 23, 5:53 am)14% (Feb 15, 2:53 pm)29.50 "Hg (Feb 17, 1:57 pm)
Average58 °F70%30.01 "Hg
* Reported Feb 8 8:53 am — Feb 23 8:53 am, Hollywood, Weather by CustomWeather, © 2017

Note: Actual official high and low records may vary slightly from our data, if they occured in-between our weather recording intervals... More about our weather records

Advertising

Hollywood Weather History for the Previous 24 Hours

Scroll right to see more
 ConditionsComfort  
Time TempWeatherWind HumidityBarometerVisibility
8:53 am
Thu, Feb 23
50 °FSunny.14 mph38%30.07 "Hg10 mi
7:53 am48 °FSunny.14 mph41%30.07 "Hg10 mi
6:53 am46 °FSunny.15 mph44%30.05 "Hg10 mi
5:53 am46 °FClear.14 mph46%30.04 "Hg10 mi
4:53 am47 °FClear.15 mph48%30.01 "Hg10 mi
3:53 am48 °FClear.13 mph48%30.00 "Hg10 mi
2:53 am49 °FClear.15 mph44%30.01 "Hg10 mi
1:53 am50 °FClear.17 mph43%30.02 "Hg10 mi
12:53 am51 °FClear.17 mph39%30.02 "Hg10 mi
11:53 pm
Wed, Feb 22
52 °FClear.13 mph38%30.03 "Hg10 mi
10:53 pm52 °FClear.18 mph41%30.03 "Hg10 mi
9:53 pm53 °FClear.16 mph39%30.03 "Hg10 mi
8:53 pm53 °FClear.8 mph45%30.02 "Hg10 mi
7:53 pm54 °FClear.6 mph41%30.01 "Hg10 mi
6:53 pm55 °FClear.7 mph47%30.01 "Hg10 mi
5:53 pm56 °FPassing clouds.8 mph58%30.00 "Hg10 mi
4:53 pm59 °FPartly sunny.18 mph42%29.99 "Hg10 mi
3:53 pm61 °FPartly sunny.8 mph48%29.98 "Hg10 mi
2:53 pm61 °FSunny.7 mph48%29.99 "Hg10 mi
1:53 pm60 °FPassing clouds.3 mph49%30.00 "Hg10 mi
12:53 pm60 °FScattered clouds.7 mph49%30.02 "Hg10 mi
11:53 am59 °FScattered clouds.3 mph44%30.05 "Hg10 mi
10:53 am58 °FSunny.3 mph51%30.09 "Hg10 mi
Weather by CustomWeather, © 2017

See weather overviewHow to use our weather pages